Time,TemperatureF,DewpointF,PressureIn,WindDirection,WindDirectionDegrees,WindSpeedMPH,WindSpeedGustMPH,Humidity,HourlyPrecipIn,Conditions,Clouds,dailyrainin,SoftwareType,DateUTC
2013-07-23 00:04:00,66.7,29.8,29.67,NE,46,0.0,4.0,25,0.00,,SKC,0.00,VWS V14.00,2013-07-23 06:04:00,
2013-07-23 00:09:00,66.8,29.9,29.67,NNE,29,1.0,5.0,25,0.00,,SKC,0.00,VWS V14.00,2013-07-23 06:09:00,
2013-07-23 00:14:00,67.3,30.3,29.66,NNE,29,4.0,7.0,25,0.00,,SKC,0.00,VWS V14.00,2013-07-23 06:14:00,
2013-07-23 00:19:00,67.4,31.4,29.67,NE,49,0.0,7.0,26,0.00,,SKC,0.00,VWS V14.00,2013-07-23 06:19:00,
2013-07-23 00:25:00,67.0,30.0,29.67,ENE,78,0.0,7.0,25,0.00,,SKC,0.00,VWS V14.00,2013-07-23 06:25:00,
2013-07-23 00:30:00,66.0,32.9,29.67,ENE,78,0.0,7.0,29,0.00,,SKC,0.00,VWS V14.00,2013-07-23 06:30:00,
2013-07-23 00:35:00,65.0,32.0,29.67,ENE,78,0.0,1.0,29,0.00,,SKC,0.00,VWS V14.00,2013-07-23 06:35:00,
2013-07-23 00:40:00,64.5,30.7,29.67,ENE,78,0.0,1.0,28,0.00,,SKC,0.00,VWS V14.00,2013-07-23 06:40:00,
2013-07-23 00:46:00,64.1,30.4,29.67,ENE,78,0.0,1.0,28,0.00,,SKC,0.00,VWS V14.00,2013-07-23 06:46:00,
2013-07-23 00:51:00,63.9,31.0,29.67,ENE,78,0.0,2.0,29,0.00,,SKC,0.00,VWS V14.00,2013-07-23 06:51:00,
2013-07-23 00:56:00,63.8,31.0,29.67,ENE,78,0.0,2.0,29,0.00,,SKC,0.00,VWS V14.00,2013-07-23 06:56:00,
2013-07-23 01:02:00,63.6,32.4,29.67,ENE,78,0.0,2.0,31,0.00,,SKC,0.00,VWS V14.00,2013-07-23 07:02:00,
2013-07-23 01:07:00,63.4,32.3,29.67,ENE,78,0.0,2.0,31,0.00,,SKC,0.00,VWS V14.00,2013-07-23 07:07:00,
2013-07-23 01:12:00,62.7,33.2,29.67,ENE,78,0.0,2.0,33,0.00,,SKC,0.00,VWS V14.00,2013-07-23 07:12:00,
2013-07-23 01:17:00,62.3,32.1,29.67,ENE,78,0.0,2.0,32,0.00,,SKC,0.00,VWS V14.00,2013-07-23 07:17:00,
2013-07-23 01:22:00,61.8,32.4,29.68,ENE,78,0.0,2.0,33,0.00,,SKC,0.00,VWS V14.00,2013-07-23 07:22:00,
2013-07-23 01:28:00,61.2,34.7,29.68,ENE,78,0.0,2.0,37,0.00,,SKC,0.00,VWS V14.00,2013-07-23 07:28:00,
2013-07-23 01:33:00,60.7,33.6,29.67,ENE,78,0.0,0.0,36,0.00,,SKC,0.00,VWS V14.00,2013-07-23 07:33:00,
2013-07-23 01:38:00,60.1,32.4,29.68,ENE,78,0.0,1.0,35,0.00,,SKC,0.00,VWS V14.00,2013-07-23 07:38:00,
2013-07-23 01:43:00,59.7,34.7,29.68,ENE,78,0.0,1.0,39,0.00,,SKC,0.00,VWS V14.00,2013-07-23 07:43:00,
2013-07-23 01:48:00,59.3,31.0,29.68,ENE,78,0.0,1.0,34,0.00,,SKC,0.00,VWS V14.00,2013-07-23 07:48:00,
2013-07-23 01:54:00,58.9,35.3,29.68,ENE,78,0.0,3.0,41,0.00,,SKC,0.00,VWS V14.00,2013-07-23 07:54:00,
2013-07-23 01:59:00,58.2,34.6,29.68,ENE,78,0.0,3.0,41,0.00,,SKC,0.00,VWS V14.00,2013-07-23 07:59:00,
2013-07-23 02:04:00,57.6,34.1,29.68,ENE,78,0.0,0.0,41,0.00,,SKC,0.00,VWS V14.00,2013-07-23 08:04:00,
2013-07-23 02:09:00,57.2,36.1,29.68,ENE,78,0.0,3.0,45,0.00,,SKC,0.00,VWS V14.00,2013-07-23 08:09:00,
2013-07-23 02:15:00,56.7,32.0,29.69,ENE,78,0.0,3.0,39,0.00,,SKC,0.00,VWS V14.00,2013-07-23 08:15:00,
2013-07-23 02:20:00,56.2,32.8,29.69,ENE,78,0.0,3.0,41,0.00,,SKC,0.00,VWS V14.00,2013-07-23 08:20:00,
2013-07-23 02:25:00,55.7,32.4,29.69,ENE,78,0.0,3.0,41,0.00,,SKC,0.00,VWS V14.00,2013-07-23 08:25:00,
2013-07-23 02:30:00,55.3,33.2,29.69,NNE,17,4.0,4.0,43,0.00,,SKC,0.00,VWS V14.00,2013-07-23 08:30:00,
2013-07-23 02:35:00,55.1,33.0,29.69,NNE,32,0.0,0.0,43,0.00,,SKC,0.00,VWS V14.00,2013-07-23 08:35:00,
2013-07-23 02:41:00,54.8,32.2,29.70,NNE,32,0.0,1.0,42,0.00,,SKC,0.00,VWS V14.00,2013-07-23 08:41:00,
2013-07-23 02:46:00,54.2,32.2,29.70,NNE,32,0.0,3.0,43,0.00,,SKC,0.00,VWS V14.00,2013-07-23 08:46:00,
2013-07-23 02:51:00,53.6,34.4,29.70,NNE,15,0.0,4.0,48,0.00,,SKC,0.00,VWS V14.00,2013-07-23 08:51:00,
2013-07-23 02:56:00,53.1,30.6,29.70,NNE,15,1.0,4.0,42,0.00,,SKC,0.00,VWS V14.00,2013-07-23 08:56:00,
2013-07-23 03:02:00,53.2,31.3,29.70,NNE,15,0.0,4.0,43,0.00,,SKC,0.00,VWS V14.00,2013-07-23 09:02:00,
2013-07-23 03:07:00,52.8,32.1,29.70,NNE,15,0.0,2.0,45,0.00,,SKC,0.00,VWS V14.00,2013-07-23 09:07:00,
2013-07-23 03:12:00,52.3,32.7,29.70,NNE,15,0.0,3.0,47,0.00,,SKC,0.00,VWS V14.00,2013-07-23 09:12:00,
2013-07-23 03:17:00,52.2,31.5,29.70,NNE,15,0.0,3.0,45,0.00,,SKC,0.00,VWS V14.00,2013-07-23 09:17:00,
2013-07-23 03:22:00,52.3,32.2,29.70,NNE,15,0.0,3.0,46,0.00,,SKC,0.00,VWS V14.00,2013-07-23 09:22:00,
2013-07-23 03:28:00,51.8,29.5,29.71,NNE,15,0.0,3.0,42,0.00,,SKC,0.00,VWS V14.00,2013-07-23 09:28:00,
2013-07-23 03:33:00,51.8,30.0,29.71,NNE,13,0.0,0.0,43,0.00,,SKC,0.00,VWS V14.00,2013-07-23 09:33:00,
2013-07-23 03:38:00,51.6,29.9,29.71,NNE,13,0.0,1.0,43,0.00,,SKC,0.00,VWS V14.00,2013-07-23 09:38:00,
2013-07-23 03:43:00,51.4,32.9,29.71,NNE,13,0.0,3.0,49,0.00,,SKC,0.00,VWS V14.00,2013-07-23 09:43:00,
2013-07-23 03:49:00,51.1,30.5,29.71,NNE,13,0.0,3.0,45,0.00,,SKC,0.00,VWS V14.00,2013-07-23 09:49:00,
2013-07-23 03:54:00,50.8,31.3,29.72,NNE,13,0.0,3.0,47,0.00,,SKC,0.00,VWS V14.00,2013-07-23 09:54:00,
2013-07-23 03:59:00,50.5,32.1,29.72,NNE,13,0.0,3.0,49,0.00,,SKC,0.00,VWS V14.00,2013-07-23 09:59:00,
2013-07-23 04:04:00,50.1,30.1,29.72,NNE,13,0.0,2.0,46,0.00,,SKC,0.00,VWS V14.00,2013-07-23 10:04:00,
2013-07-23 04:10:00,50.2,31.8,29.72,NNE,13,1.0,2.0,49,0.00,,SKC,0.00,VWS V14.00,2013-07-23 10:10:00,
2013-07-23 04:15:00,50.1,30.1,29.72,NNE,13,0.0,2.0,46,0.00,,SKC,0.00,VWS V14.00,2013-07-23 10:15:00,
2013-07-23 04:20:00,49.7,31.8,29.72,NNE,13,0.0,2.0,50,0.00,,SKC,0.00,VWS V14.00,2013-07-23 10:20:00,
2013-07-23 04:25:00,49.2,30.4,29.73,NNE,13,2.0,4.0,48,0.00,,SKC,0.00,VWS V14.00,2013-07-23 10:25:00,
2013-07-23 04:30:00,49.0,31.2,29.73,NNE,13,3.0,4.0,50,0.00,,SKC,0.00,VWS V14.00,2013-07-23 10:30:00,
2013-07-23 04:36:00,48.7,31.9,29.74,NNE,13,0.0,1.0,52,0.00,,SKC,0.00,VWS V14.00,2013-07-23 10:36:00,
2013-07-23 04:41:00,48.4,32.1,29.73,NNE,13,0.0,1.0,53,0.00,,SKC,0.00,VWS V14.00,2013-07-23 10:41:00,
2013-07-23 04:46:00,48.5,30.2,29.74,NNE,13,0.0,3.0,49,0.00,,SKC,0.00,VWS V14.00,2013-07-23 10:46:00,
2013-07-23 04:51:00,48.3,31.0,29.74,NNE,13,3.0,3.0,51,0.00,,SKC,0.00,VWS V14.00,2013-07-23 10:51:00,
2013-07-23 04:57:00,48.1,30.4,29.74,NNE,13,3.0,3.0,50,0.00,,SKC,0.00,VWS V14.00,2013-07-23 10:57:00,
2013-07-23 05:02:00,48.1,29.9,29.74,North,360,0.0,4.0,49,0.00,,SKC,0.00,VWS V14.00,2013-07-23 11:02:00,
2013-07-23 05:07:00,48.1,28.3,29.74,NE,43,0.0,4.0,46,0.00,,SKC,0.00,VWS V14.00,2013-07-23 11:07:00,
2013-07-23 05:12:00,48.2,29.5,29.74,NE,43,0.0,4.0,48,0.00,,SKC,0.00,VWS V14.00,2013-07-23 11:12:00,
2013-07-23 05:18:00,48.2,30.0,29.74,NE,43,0.0,4.0,49,0.00,,SKC,0.00,VWS V14.00,2013-07-23 11:18:00,
2013-07-23 05:23:00,47.8,30.1,29.75,NE,43,0.0,4.0,50,0.00,,SKC,0.00,VWS V14.00,2013-07-23 11:23:00,
2013-07-23 05:28:00,47.6,32.2,29.75,NE,43,0.0,4.0,55,0.00,,SKC,0.00,VWS V14.00,2013-07-23 11:28:00,
2013-07-23 05:33:00,47.2,31.0,29.75,NE,43,0.0,2.0,53,0.00,,SKC,0.00,VWS V14.00,2013-07-23 11:33:00,
2013-07-23 05:39:00,46.8,30.1,29.75,NE,43,0.0,2.0,52,0.00,,SKC,0.00,VWS V14.00,2013-07-23 11:39:00,
2013-07-23 05:44:00,46.8,31.0,29.76,NE,43,0.0,2.0,54,0.00,,SKC,0.00,VWS V14.00,2013-07-23 11:44:00,
2013-07-23 05:49:00,46.5,29.4,29.76,NE,43,2.0,2.0,51,0.00,,SKC,0.00,VWS V14.00,2013-07-23 11:49:00,
2013-07-23 05:55:00,46.5,31.7,29.76,NE,43,0.0,2.0,56,0.00,,SKC,0.00,VWS V14.00,2013-07-23 11:55:00,
2013-07-23 06:00:00,46.1,29.0,29.76,NE,43,3.0,3.0,51,0.00,,SKC,0.00,VWS V14.00,2013-07-23 12:00:00,
2013-07-23 06:05:00,46.8,27.6,29.76,NE,43,0.0,3.0,47,0.00,,SKC,0.00,VWS V14.00,2013-07-23 12:05:00,
2013-07-23 06:10:00,46.9,29.7,29.77,NE,43,2.0,3.0,51,0.00,,SKC,0.00,VWS V14.00,2013-07-23 12:10:00,
2013-07-23 06:15:00,46.6,29.5,29.77,NE,43,0.0,3.0,51,0.00,,SKC,0.00,VWS V14.00,2013-07-23 12:15:00,
2013-07-23 06:21:00,46.5,28.4,29.77,NE,43,1.0,3.0,49,0.00,,SKC,0.00,VWS V14.00,2013-07-23 12:21:00,
2013-07-23 06:26:00,46.6,29.0,29.77,NE,43,0.0,3.0,50,0.00,,SKC,0.00,VWS V14.00,2013-07-23 12:26:00,
2013-07-23 06:31:00,46.4,29.8,29.77,NE,43,0.0,3.0,52,0.00,,SKC,0.00,VWS V14.00,2013-07-23 12:31:00,
2013-07-23 06:37:00,46.3,29.6,29.77,NE,43,0.0,2.0,52,0.00,,SKC,0.00,VWS V14.00,2013-07-23 12:37:00,
2013-07-23 06:42:00,46.2,29.6,29.77,NE,43,0.0,2.0,52,0.00,,SKC,0.00,VWS V14.00,2013-07-23 12:42:00,
2013-07-23 06:47:00,46.3,29.6,29.77,NE,43,0.0,2.0,52,0.00,,SKC,0.00,VWS V14.00,2013-07-23 12:47:00,
2013-07-23 06:52:00,46.2,30.0,29.78,NE,43,0.0,2.0,53,0.00,,SKC,0.00,VWS V14.00,2013-07-23 12:52:00,
2013-07-23 06:58:00,46.0,30.8,29.78,NE,43,0.0,3.0,55,0.00,,SKC,0.00,VWS V14.00,2013-07-23 12:58:00,
2013-07-23 07:03:00,46.1,29.0,29.78,NE,43,0.0,1.0,51,0.00,,SKC,0.00,VWS V14.00,2013-07-23 13:03:00,
2013-07-23 07:08:00,46.2,30.0,29.78,NE,43,0.0,2.0,53,0.00,,SKC,0.00,VWS V14.00,2013-07-23 13:08:00,
2013-07-23 07:14:00,46.3,31.0,29.78,NE,43,1.0,2.0,55,0.00,,SKC,0.00,VWS V14.00,2013-07-23 13:14:00,
2013-07-23 07:19:00,46.1,30.9,29.78,NE,43,0.0,2.0,55,0.00,,SKC,0.00,VWS V14.00,2013-07-23 13:19:00,
2013-07-23 07:24:00,46.2,30.5,29.77,NE,43,0.0,2.0,54,0.00,,SKC,0.00,VWS V14.00,2013-07-23 13:24:00,
2013-07-23 07:29:00,46.5,33.4,29.77,NE,43,0.0,2.0,60,0.00,,SKC,0.00,VWS V14.00,2013-07-23 13:29:00,
2013-07-23 07:35:00,46.8,32.8,29.78,NE,43,0.0,0.0,58,0.00,,SKC,0.00,VWS V14.00,2013-07-23 13:35:00,
2013-07-23 07:40:00,47.5,30.3,29.78,NE,43,0.0,2.0,51,0.00,,SKC,0.00,VWS V14.00,2013-07-23 13:40:00,
2013-07-23 07:45:00,48.3,30.5,29.78,NE,43,0.0,2.0,50,0.00,,SKC,0.00,VWS V14.00,2013-07-23 13:45:00,
2013-07-23 07:51:00,49.0,31.2,29.78,NE,43,0.0,2.0,50,0.00,,SKC,0.00,VWS V14.00,2013-07-23 13:51:00,
2013-07-23 07:56:00,49.8,31.4,29.79,NE,43,0.0,2.0,49,0.00,,SKC,0.00,VWS V14.00,2013-07-23 13:56:00,
2013-07-23 08:01:00,50.7,34.7,29.79,NE,43,0.0,2.0,54,0.00,,SKC,0.00,VWS V14.00,2013-07-23 14:01:00,
2013-07-23 08:06:00,51.7,29.9,29.79,NE,43,0.0,0.0,43,0.00,,SKC,0.00,VWS V14.00,2013-07-23 14:06:00,
2013-07-23 08:11:00,52.9,31.0,29.79,NE,43,0.0,0.0,43,0.00,,SKC,0.00,VWS V14.00,2013-07-23 14:11:00,
2013-07-23 08:16:00,54.0,31.5,29.80,NE,43,0.0,0.0,42,0.00,,SKC,0.00,VWS V14.00,2013-07-23 14:16:00,
2013-07-23 08:22:00,56.0,35.0,29.79,NE,43,0.0,1.0,45,0.00,,SKC,0.00,VWS V14.00,2013-07-23 14:22:00,
2013-07-23 08:27:00,58.1,35.2,29.80,NE,43,1.0,2.0,42,0.00,,SKC,0.00,VWS V14.00,2013-07-23 14:27:00,
2013-07-23 08:28:00,58.6,38.5,29.80,NE,43,0.0,2.0,47,0.00,,SKC,0.00,VWS V14.00,2013-07-23 14:28:00,
2013-07-23 08:34:00,59.8,35.5,29.80,NE,43,0.0,1.0,40,0.00,,SKC,0.00,VWS V14.00,2013-07-23 14:34:00,
2013-07-23 08:40:00,61.0,37.2,29.80,NE,43,0.0,1.0,41,0.00,,SKC,0.00,VWS V14.00,2013-07-23 14:40:00,
2013-07-23 08:45:00,62.0,37.4,29.80,NE,43,0.0,1.0,40,0.00,,SKC,0.00,VWS V14.00,2013-07-23 14:45:00,
2013-07-23 08:50:00,63.1,30.4,29.80,NE,43,0.0,1.0,29,0.00,,SKC,0.00,VWS V14.00,2013-07-23 14:50:00,
2013-07-23 08:55:00,64.5,30.7,29.79,NE,43,0.0,1.0,28,0.00,,SKC,0.00,VWS V14.00,2013-07-23 14:55:00,
2013-07-23 09:00:00,65.9,29.1,29.79,NE,43,0.0,1.0,25,0.00,,SKC,0.00,VWS V14.00,2013-07-23 15:00:00,
2013-07-23 09:06:00,67.4,27.3,29.79,NE,43,0.0,0.0,22,0.00,,SKC,0.00,VWS V14.00,2013-07-23 15:06:00,
2013-07-23 09:11:00,68.6,31.4,29.79,NE,55,0.0,1.0,25,0.00,,SKC,0.00,VWS V14.00,2013-07-23 15:11:00,
2013-07-23 09:16:00,69.4,32.1,29.79,ENE,70,0.0,1.0,25,0.00,,SKC,0.00,VWS V14.00,2013-07-23 15:16:00,
2013-07-23 09:21:00,70.0,32.6,29.78,ENE,70,0.0,1.0,25,0.00,,SKC,0.00,VWS V14.00,2013-07-23 15:21:00,
2013-07-23 09:27:00,70.6,34.1,29.78,East,90,0.0,4.0,26,0.00,,SKC,0.00,VWS V14.00,2013-07-23 15:27:00,
2013-07-23 09:32:00,71.1,33.5,29.78,SSE,153,0.0,4.0,25,0.00,,SKC,0.00,VWS V14.00,2013-07-23 15:32:00,
2013-07-23 09:37:00,71.7,34.0,29.78,SSE,153,0.0,4.0,25,0.00,,SKC,0.00,VWS V14.00,2013-07-23 15:37:00,
2013-07-23 09:42:00,72.3,34.5,29.78,SSE,153,0.0,5.0,25,0.00,,SKC,0.00,VWS V14.00,2013-07-23 15:42:00,
2013-07-23 09:48:00,73.0,34.1,29.78,SSE,153,1.0,5.0,24,0.00,,SKC,0.00,VWS V14.00,2013-07-23 15:48:00,
2013-07-23 09:53:00,73.7,33.6,29.78,SSE,153,0.0,5.0,23,0.00,,SKC,0.00,VWS V14.00,2013-07-23 15:53:00,
2013-07-23 09:58:00,74.5,33.2,29.77,SSE,153,4.0,5.0,22,0.00,,SKC,0.00,VWS V14.00,2013-07-23 15:58:00,
2013-07-23 10:03:00,74.6,35.5,29.77,SSE,163,4.0,6.0,24,0.00,,SKC,0.00,VWS V14.00,2013-07-23 16:03:00,
2013-07-23 10:09:00,74.5,35.4,29.78,South,170,2.0,6.0,24,0.00,,SKC,0.00,VWS V14.00,2013-07-23 16:09:00,
2013-07-23 10:14:00,74.7,37.6,29.77,South,173,2.0,6.0,26,0.00,,SKC,0.00,VWS V14.00,2013-07-23 16:14:00,
2013-07-23 10:19:00,75.2,39.0,29.77,South,173,0.0,6.0,27,0.00,,SKC,0.00,VWS V14.00,2013-07-23 16:19:00,
2013-07-23 10:24:00,75.9,39.6,29.77,South,173,1.0,6.0,27,0.00,,SKC,0.00,VWS V14.00,2013-07-23 16:24:00,
2013-07-23 10:30:00,76.8,39.3,29.77,South,171,4.0,6.0,26,0.00,,SKC,0.00,VWS V14.00,2013-07-23 16:30:00,
2013-07-23 10:35:00,77.5,37.9,29.76,SSW,213,0.0,2.0,24,0.00,,SKC,0.00,VWS V14.00,2013-07-23 16:35:00,
2013-07-23 10:40:00,78.2,39.5,29.76,South,188,0.0,4.0,25,0.00,,SKC,0.00,VWS V14.00,2013-07-23 16:40:00,
2013-07-23 10:45:00,78.9,39.1,29.76,SSW,199,4.0,5.0,24,0.00,,SKC,0.00,VWS V14.00,2013-07-23 16:45:00,
2013-07-23 10:51:00,79.4,40.5,29.76,SW,215,0.0,5.0,25,0.00,,SKC,0.00,VWS V14.00,2013-07-23 16:51:00,
2013-07-23 10:56:00,79.8,39.8,29.76,SW,233,2.0,5.0,24,0.00,,SKC,0.00,VWS V14.00,2013-07-23 16:56:00,
2013-07-23 11:01:00,80.3,36.8,29.76,SW,225,1.0,5.0,21,0.00,,SKC,0.00,VWS V14.00,2013-07-23 17:01:00,
2013-07-23 11:06:00,80.8,37.3,29.76,SW,224,0.0,3.0,21,0.00,,SKC,0.00,VWS V14.00,2013-07-23 17:06:00,
2013-07-23 11:12:00,81.4,36.5,29.75,SSW,209,0.0,5.0,20,0.00,,SKC,0.00,VWS V14.00,2013-07-23 17:12:00,
2013-07-23 11:17:00,81.9,36.9,29.75,South,173,0.0,5.0,20,0.00,,SKC,0.00,VWS V14.00,2013-07-23 17:17:00,
2013-07-23 11:22:00,82.5,39.9,29.75,South,173,0.0,5.0,22,0.00,,SKC,0.00,VWS V14.00,2013-07-23 17:22:00,
2013-07-23 11:27:00,83.2,39.2,29.75,SSW,194,0.0,5.0,21,0.00,,SKC,0.00,VWS V14.00,2013-07-23 17:27:00,
2013-07-23 11:33:00,83.6,40.8,29.74,SSW,194,0.0,1.0,22,0.00,,SKC,0.00,VWS V14.00,2013-07-23 17:33:00,
2013-07-23 11:38:00,84.3,42.5,29.74,SSW,210,0.0,5.0,23,0.00,,SKC,0.00,VWS V14.00,2013-07-23 17:38:00,
2013-07-23 11:43:00,84.8,39.3,29.74,SW,215,1.0,5.0,20,0.00,,SKC,0.00,VWS V14.00,2013-07-23 17:43:00,
2013-07-23 11:49:00,85.2,39.7,29.74,SW,219,1.0,5.0,20,0.00,,SKC,0.00,VWS V14.00,2013-07-23 17:49:00,
2013-07-23 11:55:00,85.5,34.2,29.74,SSW,193,0.0,8.0,16,0.00,,SKC,0.00,VWS V14.00,2013-07-23 17:55:00,
2013-07-23 12:00:00,86.0,36.2,29.73,SSW,193,1.0,8.0,17,0.00,,SKC,0.00,VWS V14.00,2013-07-23 18:00:00,
2013-07-23 12:05:00,86.7,40.9,29.73,SSW,201,1.0,3.0,20,0.00,,SKC,0.00,VWS V14.00,2013-07-23 18:05:00,
2013-07-23 12:11:00,87.1,37.0,29.73,SSW,196,0.0,4.0,17,0.00,,SKC,0.00,VWS V14.00,2013-07-23 18:11:00,
2013-07-23 12:16:00,87.5,40.2,29.73,SW,232,2.0,4.0,19,0.00,,SKC,0.00,VWS V14.00,2013-07-23 18:16:00,
2013-07-23 12:21:00,87.8,41.8,29.73,SW,232,0.0,4.0,20,0.00,,SKC,0.00,VWS V14.00,2013-07-23 18:21:00,
2013-07-23 12:26:00,88.1,37.8,29.72,SSW,192,1.0,5.0,17,0.00,,SKC,0.00,VWS V14.00,2013-07-23 18:26:00,
2013-07-23 12:31:00,88.3,36.5,29.72,SSW,207,0.0,5.0,16,0.00,,SKC,0.00,VWS V14.00,2013-07-23 18:31:00,
2013-07-23 12:37:00,88.7,41.2,29.72,SW,223,2.0,4.0,19,0.00,,SKC,0.00,VWS V14.00,2013-07-23 18:37:00,
2013-07-23 12:42:00,88.9,38.5,29.72,SW,224,0.0,4.0,17,0.00,,SKC,0.00,VWS V14.00,2013-07-23 18:42:00,
2013-07-23 12:48:00,89.2,38.7,29.71,SSW,196,0.0,5.0,17,0.00,,SKC,0.00,VWS V14.00,2013-07-23 18:48:00,
2013-07-23 12:54:00,89.5,39.0,29.70,South,172,4.0,7.0,17,0.00,,SKC,0.00,VWS V14.00,2013-07-23 18:54:00,
2013-07-23 12:59:00,89.7,36.0,29.70,South,173,2.0,7.0,15,0.00,,SKC,0.00,VWS V14.00,2013-07-23 18:59:00,
2013-07-23 13:04:00,90.1,34.5,29.70,SSW,192,3.0,4.0,14,0.00,,SKC,0.00,VWS V14.00,2013-07-23 19:04:00,
2013-07-23 13:10:00,90.8,35.1,29.70,SSE,162,0.0,5.0,14,0.00,,SKC,0.00,VWS V14.00,2013-07-23 19:10:00,
2013-07-23 13:16:00,91.1,35.3,29.70,South,188,4.0,6.0,14,0.00,,SKC,0.00,VWS V14.00,2013-07-23 19:16:00,
2013-07-23 13:22:00,91.4,35.6,29.69,South,177,0.0,6.0,14,0.00,,SKC,0.00,VWS V14.00,2013-07-23 19:22:00,
2013-07-23 13:27:00,91.5,27.3,29.70,NNW,327,0.0,7.0,10,0.00,,SKC,0.00,VWS V14.00,2013-07-23 19:27:00,
2013-07-23 13:32:00,91.7,35.8,29.69,West,273,1.0,7.0,14,0.00,,SKC,0.00,VWS V14.00,2013-07-23 19:32:00,
2013-07-23 13:37:00,91.8,32.0,29.70,NNE,20,3.0,7.0,12,0.00,,SKC,0.00,VWS V14.00,2013-07-23 19:37:00,
2013-07-23 13:42:00,91.6,27.4,29.69,North,360,3.0,7.0,10,0.00,,SKC,0.00,VWS V14.00,2013-07-23 19:42:00,
2013-07-23 13:49:00,92.0,27.7,29.69,WSW,255,4.0,7.0,10,0.00,,SKC,0.00,VWS V14.00,2013-07-23 19:49:00,
2013-07-23 13:55:00,92.4,34.5,29.69,WSW,238,0.0,7.0,13,0.00,,SKC,0.00,VWS V14.00,2013-07-23 19:55:00,
2013-07-23 14:00:00,92.4,28.0,29.68,ESE,108,2.0,10.0,10,0.00,,SKC,0.00,VWS V14.00,2013-07-23 20:00:00,
2013-07-23 14:06:00,92.5,30.4,29.68,SW,225,3.0,7.0,11,0.00,,SKC,0.00,VWS V14.00,2013-07-23 20:06:00,
2013-07-23 14:11:00,92.3,32.4,29.68,WSW,254,1.0,9.0,12,0.00,,SKC,0.00,VWS V14.00,2013-07-23 20:11:00,
2013-07-23 14:17:00,91.7,27.5,29.68,North,355,1.0,9.0,10,0.00,,SKC,0.00,VWS V14.00,2013-07-23 20:17:00,
2013-07-23 14:22:00,91.9,27.6,29.67,South,171,0.0,9.0,10,0.00,,SKC,0.00,VWS V14.00,2013-07-23 20:22:00,
2013-07-23 14:27:00,92.4,30.3,29.67,North,350,7.0,9.0,11,0.00,,SKC,0.00,VWS V14.00,2013-07-23 20:27:00,
2013-07-23 14:34:00,92.1,27.8,29.68,NNW,342,1.0,6.0,10,0.00,,SKC,0.00,VWS V14.00,2013-07-23 20:34:00,
2013-07-23 14:40:00,92.1,32.2,29.68,SW,215,0.0,9.0,12,0.00,,SKC,0.00,VWS V14.00,2013-07-23 20:40:00,
2013-07-23 14:45:00,92.2,27.9,29.67,NNE,19,0.0,9.0,10,0.00,,SKC,0.00,VWS V14.00,2013-07-23 20:45:00,
2013-07-23 14:50:00,92.6,30.5,29.67,West,273,1.0,13.0,11,0.00,,SKC,0.00,VWS V14.00,2013-07-23 20:50:00,
2013-07-23 14:56:00,92.8,32.8,29.67,West,267,0.0,13.0,12,0.00,,SKC,0.00,VWS V14.00,2013-07-23 20:56:00,
2013-07-23 15:02:00,92.8,32.8,29.67,NE,55,1.0,13.0,12,0.00,,SKC,0.00,VWS V14.00,2013-07-23 21:02:00,
2013-07-23 15:07:00,92.4,32.5,29.67,North,360,4.0,12.0,12,0.00,,SKC,0.00,VWS V14.00,2013-07-23 21:07:00,
2013-07-23 15:12:00,92.0,30.0,29.67,NNE,17,8.0,12.0,11,0.00,,SKC,0.00,VWS V14.00,2013-07-23 21:12:00,
2013-07-23 15:18:00,91.9,30.0,29.66,WNW,288,5.0,13.0,11,0.00,,SKC,0.00,VWS V14.00,2013-07-23 21:18:00,
2013-07-23 15:24:00,91.9,32.1,29.67,West,278,7.0,13.0,12,0.00,,SKC,0.00,VWS V14.00,2013-07-23 21:24:00,
2013-07-23 15:29:00,92.1,30.1,29.66,West,269,1.0,13.0,11,0.00,,SKC,0.00,VWS V14.00,2013-07-23 21:29:00,
2013-07-23 15:34:00,92.6,28.2,29.66,NNW,346,5.0,10.0,10,0.00,,SKC,0.00,VWS V14.00,2013-07-23 21:34:00,
2013-07-23 15:39:00,92.9,32.9,29.66,SSW,207,0.0,10.0,12,0.00,,SKC,0.00,VWS V14.00,2013-07-23 21:39:00,
2013-07-23 15:44:00,92.6,28.2,29.66,North,355,6.0,15.0,10,0.00,,SKC,0.00,VWS V14.00,2013-07-23 21:44:00,
2013-07-23 15:49:00,92.2,27.9,29.66,NNW,329,2.0,15.0,10,0.00,,SKC,0.00,VWS V14.00,2013-07-23 21:49:00,
2013-07-23 15:55:00,92.1,27.8,29.66,NE,53,5.0,15.0,10,0.00,,SKC,0.00,VWS V14.00,2013-07-23 21:55:00,
2013-07-23 16:00:00,92.2,34.3,29.66,West,263,0.0,15.0,13,0.00,,SKC,0.00,VWS V14.00,2013-07-23 22:00:00,
2013-07-23 16:05:00,92.0,27.7,29.66,South,190,0.0,8.0,10,0.00,,SKC,0.00,VWS V14.00,2013-07-23 22:05:00,
2013-07-23 16:11:00,92.1,36.1,29.65,South,169,0.0,9.0,14,0.00,,SKC,0.00,VWS V14.00,2013-07-23 22:11:00,
2013-07-23 16:16:00,91.8,34.0,29.65,NW,319,2.0,13.0,13,0.00,,SKC,0.00,VWS V14.00,2013-07-23 22:16:00,
2013-07-23 16:21:00,91.3,33.6,29.65,NNW,340,5.0,13.0,13,0.00,,SKC,0.00,VWS V14.00,2013-07-23 22:21:00,
2013-07-23 16:26:00,91.0,33.4,29.65,ENE,65,1.0,13.0,13,0.00,,SKC,0.00,VWS V14.00,2013-07-23 22:26:00,
2013-07-23 16:32:00,91.1,35.3,29.65,West,276,1.0,13.0,14,0.00,,SKC,0.00,VWS V14.00,2013-07-23 22:32:00,
2013-07-23 16:38:00,91.4,29.6,29.65,WSW,250,3.0,8.0,11,0.00,,SKC,0.00,VWS V14.00,2013-07-23 22:38:00,
2013-07-23 16:43:00,91.9,34.1,29.65,ENE,73,1.0,11.0,13,0.00,,SKC,0.00,VWS V14.00,2013-07-23 22:43:00,
2013-07-23 16:48:00,92.0,32.2,29.65,West,259,4.0,11.0,12,0.00,,SKC,0.00,VWS V14.00,2013-07-23 22:48:00,
2013-07-23 16:53:00,91.9,30.0,29.65,West,268,5.0,12.0,11,0.00,,SKC,0.00,VWS V14.00,2013-07-23 22:53:00,
2013-07-23 16:59:00,91.9,30.0,29.65,WNW,293,12.0,12.0,11,0.00,,SKC,0.00,VWS V14.00,2013-07-23 22:59:00,
2013-07-23 17:04:00,91.2,31.6,29.65,SSE,150,2.0,8.0,12,0.00,,SKC,0.00,VWS V14.00,2013-07-23 23:04:00,
2013-07-23 17:09:00,90.5,28.9,29.66,ESE,121,7.0,13.0,11,0.00,,SKC,0.00,VWS V14.00,2013-07-23 23:09:00,
2013-07-23 17:14:00,90.2,30.8,29.66,South,189,4.0,21.0,12,0.00,,SKC,0.00,VWS V14.00,2013-07-23 23:14:00,
2013-07-23 17:19:00,90.1,26.3,29.66,East,94,4.0,21.0,10,0.00,,SKC,0.00,VWS V14.00,2013-07-23 23:19:00,
2013-07-23 17:25:00,90.0,30.6,29.66,West,261,0.0,21.0,12,0.00,,SKC,0.00,VWS V14.00,2013-07-23 23:25:00,
2013-07-23 17:30:00,89.7,32.4,29.66,SW,223,0.0,21.0,13,0.00,,SKC,0.00,VWS V14.00,2013-07-23 23:30:00,
2013-07-23 17:35:00,89.2,27.9,29.66,NNW,335,8.0,11.0,11,0.00,,SKC,0.00,VWS V14.00,2013-07-23 23:35:00,
2013-07-23 17:40:00,88.9,31.8,29.67,NNE,17,6.0,15.0,13,0.00,,SKC,0.00,VWS V14.00,2013-07-23 23:40:00,
2013-07-23 17:46:00,88.8,29.7,29.66,NNW,342,14.0,15.0,12,0.00,,SKC,0.00,VWS V14.00,2013-07-23 23:46:00,
2013-07-23 17:52:00,88.9,29.8,29.65,WNW,301,4.0,15.0,12,0.00,,SKC,0.00,VWS V14.00,2013-07-23 23:52:00,
2013-07-23 17:58:00,88.9,29.8,29.65,ENE,61,0.0,15.0,12,0.00,,SKC,0.00,VWS V14.00,2013-07-23 23:58:00,
2013-07-23 18:03:00,88.8,29.7,29.65,West,279,4.0,6.0,12,0.00,,SKC,0.00,VWS V14.00,2013-07-24 00:03:00,
2013-07-23 18:08:00,88.5,29.5,29.65,SE,138,0.0,7.0,12,0.00,,SKC,0.00,VWS V14.00,2013-07-24 00:08:00,
2013-07-23 18:14:00,88.9,29.8,29.65,West,272,0.0,8.0,12,0.00,,SKC,0.00,VWS V14.00,2013-07-24 00:14:00,
2013-07-23 18:19:00,89.3,28.0,29.65,NNE,23,2.0,10.0,11,0.00,,SKC,0.00,VWS V14.00,2013-07-24 00:19:00,
2013-07-23 18:25:00,89.5,28.1,29.64,West,277,6.0,14.0,11,0.00,,SKC,0.00,VWS V14.00,2013-07-24 00:25:00,
2013-07-23 18:30:00,89.6,28.2,29.65,ENE,63,1.0,14.0,11,0.00,,SKC,0.00,VWS V14.00,2013-07-24 00:30:00,
2013-07-23 18:35:00,89.3,28.0,29.65,WSW,245,5.0,14.0,11,0.00,,SKC,0.00,VWS V14.00,2013-07-24 00:35:00,
2013-07-23 18:40:00,88.7,27.5,29.65,WSW,252,3.0,14.0,11,0.00,,SKC,0.00,VWS V14.00,2013-07-24 00:40:00,
2013-07-23 18:45:00,88.1,27.0,29.65,NNW,348,4.0,14.0,11,0.00,,SKC,0.00,VWS V14.00,2013-07-24 00:45:00,
2013-07-23 18:50:00,87.8,26.8,29.65,WSW,254,0.0,14.0,11,0.00,,SKC,0.00,VWS V14.00,2013-07-24 00:50:00,
2013-07-23 18:56:00,87.7,26.7,29.65,North,350,0.0,14.0,11,0.00,,SKC,0.00,VWS V14.00,2013-07-24 00:56:00,
2013-07-23 19:01:00,87.7,28.9,29.65,NNW,345,0.0,14.0,12,0.00,,SKC,0.00,VWS V14.00,2013-07-24 01:01:00,
2013-07-23 19:07:00,87.6,28.8,29.65,NE,34,0.0,5.0,12,0.00,,SKC,0.00,VWS V14.00,2013-07-24 01:07:00,
2013-07-23 19:14:00,87.4,30.6,29.65,NW,310,0.0,5.0,13,0.00,,SKC,0.00,VWS V14.00,2013-07-24 01:14:00,
2013-07-23 19:19:00,87.3,30.5,29.65,North,351,7.0,7.0,13,0.00,,SKC,0.00,VWS V14.00,2013-07-24 01:19:00,
2013-07-23 19:24:00,87.1,30.4,29.65,East,87,0.0,7.0,13,0.00,,SKC,0.00,VWS V14.00,2013-07-24 01:24:00,
2013-07-23 19:29:00,86.9,28.2,29.65,East,87,0.0,7.0,12,0.00,,SKC,0.00,VWS V14.00,2013-07-24 01:29:00,
2013-07-23 19:35:00,86.7,30.0,29.65,NNW,348,1.0,4.0,13,0.00,,SKC,0.00,VWS V14.00,2013-07-24 01:35:00,
2013-07-23 19:40:00,86.4,29.8,29.65,NE,34,0.0,4.0,13,0.00,,SKC,0.00,VWS V14.00,2013-07-24 01:40:00,
2013-07-23 19:46:00,86.2,29.6,29.65,NNE,30,2.0,10.0,13,0.00,,SKC,0.00,VWS V14.00,2013-07-24 01:46:00,
2013-07-23 19:51:00,85.9,25.4,29.66,NNW,332,6.0,14.0,11,0.00,,SKC,0.00,VWS V14.00,2013-07-24 01:51:00,
2013-07-23 19:57:00,86.3,29.7,29.66,NE,43,0.0,14.0,13,0.00,,SKC,0.00,VWS V14.00,2013-07-24 01:57:00,
2013-07-23 20:02:00,85.9,29.4,29.66,NNE,20,1.0,1.0,13,0.00,,SKC,0.00,VWS V14.00,2013-07-24 02:02:00,
2013-07-23 20:08:00,85.5,27.1,29.66,NNE,22,0.0,5.0,12,0.00,,SKC,0.00,VWS V14.00,2013-07-24 02:08:00,
2013-07-23 20:13:00,84.6,33.5,29.66,NNE,22,0.0,5.0,16,0.00,,SKC,0.00,VWS V14.00,2013-07-24 02:13:00,
2013-07-23 20:18:00,83.6,31.1,29.66,NNE,22,0.0,5.0,15,0.00,,SKC,0.00,VWS V14.00,2013-07-24 02:18:00,
2013-07-23 20:23:00,82.9,30.6,29.66,NNE,22,0.0,5.0,15,0.00,,SKC,0.00,VWS V14.00,2013-07-24 02:23:00,
2013-07-23 20:28:00,82.3,31.7,29.66,NNE,22,0.0,5.0,16,0.00,,SKC,0.00,VWS V14.00,2013-07-24 02:28:00,
2013-07-23 20:33:00,81.6,29.5,29.66,NNE,22,0.0,0.0,15,0.00,,SKC,0.00,VWS V14.00,2013-07-24 02:33:00,
2013-07-23 20:38:00,80.9,29.0,29.66,NNE,22,0.0,0.0,15,0.00,,SKC,0.00,VWS V14.00,2013-07-24 02:38:00,
2013-07-23 20:45:00,79.9,28.2,29.67,NNE,22,0.0,3.0,15,0.00,,SKC,0.00,VWS V14.00,2013-07-24 02:45:00,
2013-07-23 20:50:00,79.4,27.8,29.67,NNE,22,2.0,3.0,15,0.00,,SKC,0.00,VWS V14.00,2013-07-24 02:50:00,
2013-07-23 20:55:00,79.0,29.0,29.67,East,97,0.0,4.0,16,0.00,,SKC,0.00,VWS V14.00,2013-07-24 02:55:00,
2013-07-23 21:00:00,78.2,28.4,29.68,East,96,4.0,6.0,16,0.00,,SKC,0.00,VWS V14.00,2013-07-24 03:00:00,
2013-07-23 21:06:00,78.7,31.7,29.68,SE,126,0.0,5.0,18,0.00,,SKC,0.00,VWS V14.00,2013-07-24 03:06:00,
2013-07-23 21:11:00,78.6,28.7,29.68,East,82,0.0,6.0,16,0.00,,SKC,0.00,VWS V14.00,2013-07-24 03:11:00,
2013-07-23 21:16:00,78.1,32.5,29.69,East,92,0.0,6.0,19,0.00,,SKC,0.00,VWS V14.00,2013-07-24 03:16:00,
2013-07-23 21:22:00,77.3,30.5,29.69,East,92,0.0,6.0,18,0.00,,SKC,0.00,VWS V14.00,2013-07-24 03:22:00,
2013-07-23 21:27:00,76.6,30.0,29.69,ENE,66,0.0,6.0,18,0.00,,SKC,0.00,VWS V14.00,2013-07-24 03:27:00,
2013-07-23 21:32:00,76.0,28.1,29.70,ESE,112,1.0,6.0,17,0.00,,SKC,0.00,VWS V14.00,2013-07-24 03:32:00,
2013-07-23 21:37:00,74.5,34.3,29.70,NE,47,2.0,5.0,23,0.00,,SKC,0.00,VWS V14.00,2013-07-24 03:37:00,
2013-07-23 21:42:00,73.7,37.7,29.70,NNE,32,0.0,5.0,27,0.00,,SKC,0.00,VWS V14.00,2013-07-24 03:42:00,
2013-07-23 21:48:00,72.6,35.8,29.71,NNE,32,2.0,5.0,26,0.00,,SKC,0.00,VWS V14.00,2013-07-24 03:48:00,
2013-07-23 21:53:00,71.7,32.0,29.71,NNE,32,0.0,5.0,23,0.00,,SKC,0.00,VWS V14.00,2013-07-24 03:53:00,
2013-07-23 21:58:00,71.2,32.6,29.71,NNE,32,1.0,5.0,24,0.00,,SKC,0.00,VWS V14.00,2013-07-24 03:58:00,
2013-07-23 22:01:00,71.1,32.5,29.71,ENE,69,1.0,5.0,24,0.00,,SKC,0.00,VWS V14.00,2013-07-24 04:01:00,
2013-07-23 22:02:00,71.0,31.4,29.71,ENE,69,0.0,5.0,23,0.00,,SKC,0.00,VWS V14.00,2013-07-24 04:02:00,
2013-07-23 22:03:00,71.0,30.3,29.72,ENE,67,3.0,3.0,22,0.00,,SKC,0.00,VWS V14.00,2013-07-24 04:03:00,
2013-07-23 22:08:00,71.5,30.7,29.72,ENE,66,0.0,3.0,22,0.00,,SKC,0.00,VWS V14.00,2013-07-24 04:08:00,
2013-07-23 22:14:00,71.7,34.0,29.72,NE,42,6.0,6.0,25,0.00,,SKC,0.00,VWS V14.00,2013-07-24 04:14:00,
2013-07-23 22:19:00,71.9,33.2,29.73,NNE,30,0.0,6.0,24,0.00,,SKC,0.00,VWS V14.00,2013-07-24 04:19:00,
2013-07-23 22:24:00,71.6,32.9,29.72,ENE,58,0.0,6.0,24,0.00,,SKC,0.00,VWS V14.00,2013-07-24 04:24:00,
2013-07-23 22:29:00,71.0,34.4,29.73,ENE,58,0.0,6.0,26,0.00,,SKC,0.00,VWS V14.00,2013-07-24 04:29:00,
2013-07-23 22:34:00,70.4,28.6,29.73,ENE,61,2.0,3.0,21,0.00,,SKC,0.00,VWS V14.00,2013-07-24 04:34:00,
2013-07-23 22:40:00,70.8,29.0,29.73,ENE,70,4.0,5.0,21,0.00,,SKC,0.00,VWS V14.00,2013-07-24 04:40:00,
2013-07-23 22:45:00,71.5,32.8,29.73,NE,35,0.0,5.0,24,0.00,,SKC,0.00,VWS V14.00,2013-07-24 04:45:00,
2013-07-23 22:50:00,71.3,29.4,29.73,NE,36,4.0,6.0,21,0.00,,SKC,0.00,VWS V14.00,2013-07-24 04:50:00,
2013-07-23 22:55:00,72.4,30.3,29.73,ENE,57,0.0,7.0,21,0.00,,SKC,0.00,VWS V14.00,2013-07-24 04:55:00,
2013-07-23 23:01:00,72.6,33.8,29.73,North,360,4.0,7.0,24,0.00,,SKC,0.00,VWS V14.00,2013-07-24 05:01:00,
2013-07-23 23:06:00,72.0,31.1,29.73,NE,34,2.0,4.0,22,0.00,,SKC,0.00,VWS V14.00,2013-07-24 05:06:00,
2013-07-23 23:11:00,71.7,32.0,29.73,ENE,70,2.0,4.0,23,0.00,,SKC,0.00,VWS V14.00,2013-07-24 05:11:00,
2013-07-23 23:16:00,71.9,28.7,29.73,ENE,67,2.0,5.0,20,0.00,,SKC,0.00,VWS V14.00,2013-07-24 05:16:00,
2013-07-23 23:22:00,73.0,28.3,29.73,NE,37,2.0,8.0,19,0.00,,SKC,0.00,VWS V14.00,2013-07-24 05:22:00,
2013-07-23 23:27:00,73.5,31.2,29.73,ENE,58,1.0,8.0,21,0.00,,SKC,0.00,VWS V14.00,2013-07-24 05:27:00,
2013-07-23 23:32:00,73.6,28.8,29.73,NNE,17,3.0,8.0,19,0.00,,SKC,0.00,VWS V14.00,2013-07-24 05:32:00,
2013-07-23 23:37:00,73.3,29.8,29.73,NNE,23,1.0,4.0,20,0.00,,SKC,0.00,VWS V14.00,2013-07-24 05:37:00,
2013-07-23 23:42:00,72.7,32.8,29.73,NNE,23,0.0,4.0,23,0.00,,SKC,0.00,VWS V14.00,2013-07-24 05:42:00,
2013-07-23 23:48:00,71.8,33.1,29.73,NNE,23,0.0,4.0,24,0.00,,SKC,0.00,VWS V14.00,2013-07-24 05:48:00,
2013-07-23 23:53:00,70.9,31.3,29.74,NNE,23,0.0,4.0,23,0.00,,SKC,0.00,VWS V14.00,2013-07-24 05:53:00,
2013-07-23 23:58:00,70.1,29.5,29.74,NE,42,2.0,4.0,22,0.00,,SKC,0.00,VWS V14.00,2013-07-24 05:58:00,